Voltar ao catálogo

FENGYUN 1C DEB

AtivoPO
NORAD 37067·DEBRIS·🇨🇳 China

Lançado May 10, 1999 de Taiyuan Satellite Launch Center

Loading…

Próximas Passagens (próximas 24 horas)

TLE

AtualizadoSource: Space-Track

Época: Sep 12, 2026, 14:24 UTC

1 37067U 99025EFB 26255.60062669  .00006603  00000-0  38711-2 0  9990
2 37067  99.5033 214.5954 0139357  79.6687 282.0155 14.03779549612477

Acompanhe FENGYUN 1C DEB em tempo real com AllMySat

Download on the App Store